Flag for Australia Weather past 2 weeks in Mackay, Queensland, Australia

Now
64 °F

Mild.


Feels Like: 64 °F
Forecast: 60 / 74 °F
Wind: N/A

Location: Mackay Mo

Current Time: Jul 5, 2015 at 11:39:35 PM

Latest Report: Jul 5, 2015 at 10:00 PM


Visibility: N/A

Pressure: 30.12 "Hg

Humidity: 91%

Dew point: 61 °F

Location of MackayLocation

Historic Weather in Mackay — Graph

°F

Mackay temperature yesterday

Maximum temperature yesterday: 68 °F (at 1:00 PM)
Minimum temperature yesterday: 53 °F (at 4:00 AM)
Average temperature yesterday: 62 °F

Past Weeks' High & Low Weather Summary

 TemperatureHumidityPressure
High73 °F (Jun 25, 1:00 PM)98% (Jun 22, 7:00 AM)30.25 "Hg (Jun 22, 7:00 AM)
Low53 °F (Jul 4, 4:00 AM)49% (Jun 21, 10:00 AM)30.04 "Hg (Jun 25, 4:00 PM)
Average66 °F81%30.15 "Hg
* Reported Jun 20 10:00 PM — Jul 5 10:00 PM, Mackay, Weather by CustomWeather, © 2015

Note: Actual official high and low records may vary slightly from our data, if they occured in-between our weather recording intervals... More about our weather records

Advertising

Mackay weather history for previous 24 hours

 ConditionsComfort  
Time TempWeatherWind HumidityBarometerVisibility
10:00 PM
Sun, Jul 5
64 °FMild.N/A91%30.12 "HgN/A
9:00 PM67 °FPassing clouds.N/A81%30.11 "HgN/A
7:00 PM68 °FMild.N/A80%30.09 "HgN/A
6:00 PM67 °FMild.N/A84%30.07 "HgN/A
4:00 PM69 °FMild.N/A77%30.07 "HgN/A
3:00 PM69 °FOvercast.N/A79%30.07 "HgN/A
1:00 PM70 °FMild.N/A79%30.09 "HgN/A
12:00 PM70 °FPartly sunny.N/A80%30.12 "HgN/A
10:00 AM68 °FMild.N/A81%30.14 "HgN/A
9:00 AM66 °FMild.N/A84%30.14 "HgN/A
7:00 AM58 °FCool.N/A97%30.11 "HgN/A
6:00 AM59 °FCool.N/A98%30.09 "HgN/A
4:00 AM62 °FCool.N/A96%30.07 "HgN/A
3:00 AM63 °FPassing clouds.N/A95%30.07 "HgN/A
1:00 AM63 °FMild.N/A95%30.11 "HgN/A
12:00 AM64 °FOvercast.N/A92%30.12 "HgN/A
Weather by CustomWeather, © 2015

See weather overviewHow to use our weather pages